Location: Cincinnati Observatory Center
(39.1389°N, 84.4225°W)
Time: 22:01:51
(UTC-04:00)

Amateur Radio Satellites - All Passes

Search period start: 14 September 2014 21:31
Search period end: 15 September 2014 21:31
Location: Cincinnati Observatory Center, 39.1389°N, 84.4225°W

Satellite Date Start Highest point End Downlink Frequencies (MHz)
Time Altitude Azimuth
UKube-1 14 Sep 21:35:49 21:39:28 27° 69° (ENE) 21:43:09 145.840 MHz, 145.915 MHz
PCSat 14 Sep 21:44:57 21:46:53 12° 40° (NE) 21:48:49 145.825 MHz
HO-68 14 Sep 22:30:59 22:37:47 48° 260° (W) 22:44:39 435.675 MHz FM
FUNcube-1 14 Sep 22:35:25 22:39:16 32° 70° (ENE) 22:43:14 145.950 - 145.970 MHz USB
Sapphire 14 Sep 22:58:30 23:03:32 37° 54° (NE) 23:08:32 437.095 MHz 1200 baud AX-25 AFSK
Oscar 11 14 Sep 23:00:02 23:04:15 49° 260° (W) 23:08:31 145.825 FM, Beacon 2401.500 USB
KITSAT 1 14 Sep 23:05:11 23:12:10 31° 315° (NW) 23:19:13 435.175 FM
SO-50 14 Sep 23:11:27 23:12:03 10° 106° (ESE) 23:12:39 436.795 FM
UKube-1 14 Sep 23:12:05 23:15:37 24° 264° (W) 23:19:11 145.840 MHz, 145.915 MHz
PCSat 14 Sep 23:25:56 23:31:21 67° 60° (ENE) 23:36:44 145.825 MHz
FUNcube-1 15 Sep 00:12:26 00:15:43 21° 267° (W) 00:19:04 145.950 - 145.970 MHz USB
Sapphire 15 Sep 00:42:09 00:46:48 30° 252° (WSW) 00:51:26 437.095 MHz 1200 baud AX-25 AFSK
SO-50 15 Sep 00:47:26 00:51:53 76° 302° (WNW) 00:56:29 436.795 FM
KITSAT 1 15 Sep 01:09:54 01:10:46 10° 342° (NNW) 01:11:38 435.175 FM
PCSat 15 Sep 01:11:05 01:14:08 15° 256° (WSW) 01:17:11 145.825 MHz
UOSAT-12 15 Sep 01:16:10 01:19:13 18° 109° (ESE) 01:22:18 437.025 FM, 437.400 FM
AO-Echo 15 Sep 02:24:34 02:25:19 10° 90° (E) 02:26:03 ?
Oscar 19 15 Sep 02:27:31 02:31:54 27° 95° (E) 02:36:14 437.125 CW, 437.150 USB
SO-50 15 Sep 02:31:47 02:33:17 11° 322° (NW) 02:34:47 436.795 FM
AO-27 15 Sep 02:33:55 02:36:09 13° 90° (E) 02:38:23 436.795 MHz FM
AO-40 15 Sep 02:46:36 03:27:54 12° 240° (WSW) 04:20:46 Beacon 2401.320
UOSAT-12 15 Sep 02:54:27 02:58:56 50° 306° (NW) 03:03:32 437.025 FM, 437.400 FM
Oscar 16 15 Sep 03:04:50 03:10:01 66° 102° (ESE) 03:15:08 437.025 USB, Beacon 2401.1428
Saudisat 1A 15 Sep 03:13:32 03:16:47 20° 46° (NE) 03:20:02 436.775 MHz
TMSAT-1 15 Sep 03:36:23 03:39:57 18° 92° (E) 03:43:29 436.925 FM
ITAMSAT 1 15 Sep 03:37:23 03:42:29 54° 101° (E) 03:47:35 435.822 SSB
Uribyol 2 15 Sep 03:42:54 03:48:06 66° 102° (ESE) 03:53:17 436.500 FM
JAS-1B 15 Sep 03:59:01 04:04:55 84° 104° (ESE) 04:10:35 435.800 - 435.900 CW/SSB
AO-Echo 15 Sep 03:59:46 04:04:33 76° 285° (WNW) 04:09:27 ?
RS-15 15 Sep 04:04:52 04:11:11 17° 99° (E) 04:17:23 29.354 - 29.394 USB, Beacon 29.352 USB
ISS 15 Sep 04:05:28 04:06:54 12° 128° (SE) 04:08:19 145.800 FM
Oscar 19 15 Sep 04:06:36 04:11:14 34° 291° (WNW) 04:15:50 437.125 CW, 437.150 USB
AO-27 15 Sep 04:10:57 04:16:09 72° 286° (WNW) 04:21:20 436.795 MHz FM
Gurwin Techsat 1B 15 Sep 04:34:24 04:39:45 89° 104° (ESE) 04:45:04 435.225 FM
Oscar 16 15 Sep 04:45:50 04:48:47 15° 298° (WNW) 04:51:43 437.025 USB, Beacon 2401.1428
Saudisat 1A 15 Sep 04:52:22 04:56:37 48° 243° (WSW) 05:00:50 436.775 MHz
OPAL 15 Sep 04:52:50 04:57:41 44° 68° (ENE) 05:02:37 ?
KITSAT 1 15 Sep 05:03:05 05:09:52 28° 43° (NE) 05:16:36 435.175 FM
Uosat F 15 Sep 05:06:04 05:09:52 21° 94° (E) 05:13:40 435.120 FM
TMSAT-1 15 Sep 05:15:00 05:20:09 53° 288° (WNW) 05:25:17 436.925 FM
ITAMSAT 1 15 Sep 05:18:02 05:21:32 19° 297° (WNW) 05:25:03 435.822 SSB
Uribyol 2 15 Sep 05:23:59 05:27:00 16° 298° (WNW) 05:30:01 436.500 FM
ISS 15 Sep 05:39:54 05:43:13 66° 323° (NW) 05:46:32 145.800 FM
AO-7 15 Sep 05:45:09 05:53:18 57° 103° (ESE) 06:01:23 29.400 - 29.500 MHz
JAS-1B 15 Sep 05:52:25 05:54:39 12° 304° (NW) 05:56:51 435.800 - 435.900 CW/SSB
PANSAT 15 Sep 06:02:42 06:05:07 16° 176° (S) 06:07:33 not established
RS-15 15 Sep 06:10:38 06:21:43 82° 118° (ESE) 06:32:39 29.354 - 29.394 USB, Beacon 29.352 USB
Gurwin Techsat 1B 15 Sep 06:17:04 06:18:55 12° 301° (WNW) 06:20:46 435.225 FM
Hamsat 15 Sep 06:23:13 06:24:57 12° 90° (E) 06:26:40 145.90 MHz
OPAL 15 Sep 06:32:49 06:36:44 22° 264° (W) 06:40:41 ?
Uosat F 15 Sep 06:44:06 06:48:47 41° 290° (WNW) 06:53:28 435.120 FM
JAS-2 15 Sep 06:49:29 06:54:48 34° 98° (E) 07:00:41 435.800 - 435.900 CW/SSB, 435.910 FM
KITSAT 1 15 Sep 06:57:57 07:06:00 74° 244° (WSW) 07:14:00 435.175 FM
STRAND 1 15 Sep 07:04:26 07:09:10 41° 70° (ENE) 07:13:56 ?
ISS 15 Sep 07:18:27 07:20:27 15° 342° (NNW) 07:22:27 145.800 FM
AO-7 15 Sep 07:38:36 07:45:38 32° 301° (WNW) 07:52:39 29.400 - 29.500 MHz
SO-50 15 Sep 07:41:36 07:43:21 12° 38° (NE) 07:45:06 436.795 FM
PANSAT 15 Sep 07:42:29 07:44:38 14° 189° (S) 07:46:47 not established
Hamsat 15 Sep 07:57:03 08:01:13 51° 286° (WNW) 08:05:19 145.90 MHz
SO-67 15 Sep 08:10:40 08:13:36 25° 96° (E) 08:16:31 435.3500 MHz FM
RS-15 15 Sep 08:25:51 08:35:20 32° 323° (NW) 08:44:51 29.354 - 29.394 USB, Beacon 29.352 USB
JAS-2 15 Sep 08:34:38 08:39:50 35° 291° (WNW) 08:45:35 435.800 - 435.900 CW/SSB, 435.910 FM
STRAND 1 15 Sep 08:44:38 08:48:30 22° 266° (W) 08:52:22 ?
KITSAT 1 15 Sep 08:57:13 08:59:58 12° 262° (W) 09:02:44 435.175 FM
SO-50 15 Sep 09:19:57 09:24:46 71° 57° (ENE) 09:29:37 436.795 FM
SO-67 15 Sep 09:44:14 09:46:25 16° 291° (WNW) 09:48:36 435.3500 MHz FM
UOSAT-12 15 Sep 09:46:14 09:49:00 15° 41° (NE) 09:51:44 437.025 FM, 437.400 FM
HO-68 15 Sep 09:59:45 10:06:15 36° 98° (E) 10:12:43 435.675 MHz FM
MaSat-1 15 Sep 10:13:36 10:18:34 70° 112° (ESE) 10:23:35 437.345 MHz
ISS 15 Sep 10:33:40 10:36:07 19° 23° (NNE) 10:38:33 145.800 FM
RS-15 15 Sep 10:46:11 10:52:43 17° 358° (N) 10:59:18 29.354 - 29.394 USB, Beacon 29.352 USB
Oscar 11 15 Sep 10:48:58 10:52:51 31° 97° (E) 10:56:42 145.825 FM, Beacon 2401.500 USB
UKube-1 15 Sep 11:00:26 11:04:44 59° 101° (E) 11:09:01 145.840 MHz, 145.915 MHz
SO-50 15 Sep 11:02:34 11:04:45 13° 253° (WSW) 11:06:56 436.795 FM
UOSAT-12 15 Sep 11:25:00 11:29:45 80° 240° (WSW) 11:34:23 437.025 FM, 437.400 FM
HO-68 15 Sep 11:47:19 11:53:57 42° 294° (WNW) 12:00:35 435.675 MHz FM
MaSat-1 15 Sep 11:52:38 11:55:53 17° 309° (NW) 11:59:06 437.345 MHz
FUNcube-1 15 Sep 12:01:14 12:05:53 82° 102° (ESE) 12:10:29 145.950 - 145.970 MHz USB
ISS 15 Sep 12:09:49 12:13:09 74° 220° (SW) 12:16:27 145.800 FM
Oscar 11 15 Sep 12:25:30 12:28:51 22° 292° (WNW) 12:32:10 145.825 FM, Beacon 2401.500 USB
UKube-1 15 Sep 12:38:31 12:40:25 13° 297° (WNW) 12:42:19 145.840 MHz, 145.915 MHz
Oscar 16 15 Sep 12:46:21 12:47:17 10° 59° (ENE) 12:48:13 437.025 USB, Beacon 2401.1428
JAS-1B 15 Sep 12:55:33 12:59:20 14° 57° (ENE) 13:02:53 435.800 - 435.900 CW/SSB
RS-15 15 Sep 13:01:13 13:10:26 29° 34° (NNE) 13:19:51 29.354 - 29.394 USB, Beacon 29.352 USB
Uribyol 2 15 Sep 13:25:00 13:26:13 11° 59° (ENE) 13:27:26 436.500 FM
AO-Echo 15 Sep 13:36:07 13:38:20 13° 63° (ENE) 13:40:32 ?
Sapphire 15 Sep 13:39:11 13:44:13 41° 111° (ESE) 13:49:17 437.095 MHz 1200 baud AX-25 AFSK
FUNcube-1 15 Sep 13:40:51 13:41:33 10° 298° (WNW) 13:42:15 145.950 - 145.970 MHz USB
Oscar 19 15 Sep 13:43:13 13:47:54 36° 69° (ENE) 13:52:38 437.125 CW, 437.150 USB
AO-27 15 Sep 13:50:38 13:54:10 19° 64° (ENE) 13:57:43 436.795 MHz FM
PCSat 15 Sep 14:06:18 14:11:41 79° 116° (ESE) 14:17:08 145.825 MHz
Gurwin Techsat 1B 15 Sep 14:17:17 14:20:22 16° 62° (ENE) 14:23:28 435.225 FM
Oscar 16 15 Sep 14:20:36 14:25:47 85° 75° (ENE) 14:31:01 437.025 USB, Beacon 2401.1428
JAS-1B 15 Sep 14:39:56 14:48:54 70° 73° (ENE) 14:56:28 435.800 - 435.900 CW/SSB
ITAMSAT 1 15 Sep 14:54:18 14:59:26 74° 74° (ENE) 15:04:36 435.822 SSB
AO-7 15 Sep 14:55:16 14:59:31 15° 49° (NE) 15:03:47 29.400 - 29.500 MHz
TMSAT-1 15 Sep 14:55:57 15:00:15 26° 66° (ENE) 15:04:34 436.925 FM
Uribyol 2 15 Sep 14:59:42 15:04:52 87° 76° (ENE) 15:10:04 436.500 FM
AO-Echo 15 Sep 15:11:49 15:16:35 65° 259° (WSW) 15:21:17 ?
RS-15 15 Sep 15:13:21 15:24:32 86° 59° (ENE) 15:36:12 29.354 - 29.394 USB, Beacon 29.352 USB
Oscar 19 15 Sep 15:22:59 15:27:17 26° 265° (W) 15:31:36 437.125 CW, 437.150 USB
Sapphire 15 Sep 15:23:09 15:27:45 28° 309° (NW) 15:32:24 437.095 MHz 1200 baud AX-25 AFSK
AO-27 15 Sep 15:28:14 15:33:15 52° 260° (W) 15:38:19 436.795 MHz FM
PCSat 15 Sep 15:52:17 15:55:45 17° 315° (NW) 15:59:14 145.825 MHz
Gurwin Techsat 1B 15 Sep 15:54:29 15:59:45 66° 258° (WSW) 16:05:03 435.225 FM
Oscar 16 15 Sep 16:05:08 16:05:45 10° 271° (W) 16:06:21 437.025 USB, Beacon 2401.1428
Uosat F 15 Sep 16:18:19 16:22:28 27° 67° (ENE) 16:26:39 435.120 FM
JAS-1B 15 Sep 16:32:42 16:39:41 25° 265° (W) 16:45:57 435.800 - 435.900 CW/SSB
TMSAT-1 15 Sep 16:35:05 16:39:58 38° 262° (W) 16:44:52 436.925 FM
ITAMSAT 1 15 Sep 16:37:29 16:39:27 12° 270° (W) 16:41:25 435.822 SSB
AO-7 15 Sep 16:42:36 16:50:49 70° 68° (ENE) 16:59:04 29.400 - 29.500 MHz
Oscar 10/S400 15 Sep 16:55:14 17:12:36 37° 149° (SSE) 17:36:14 145.825 - 145.975 CW/USB, Beacon 145.810 USB
OPAL 15 Sep 17:06:13 17:08:08 12° 92° (E) 17:10:02 ?
JAS-2 15 Sep 17:06:35 17:06:58 10° 59° (ENE) 17:07:21 435.800 - 435.900 CW/SSB, 435.910 FM
RS-15 15 Sep 17:27:33 17:35:33 23° 258° (WSW) 17:43:48 29.354 - 29.394 USB, Beacon 29.352 USB
Uosat F 15 Sep 17:56:40 18:01:07 33° 263° (W) 18:05:37 435.120 FM
MaSat-1 15 Sep 18:34:44 18:35:09 10° 46° (NE) 18:35:33 437.345 MHz
AO-7 15 Sep 18:37:46 18:44:10 24° 266° (W) 18:50:37 29.400 - 29.500 MHz
OPAL 15 Sep 18:42:21 18:47:33 76° 288° (WNW) 18:52:39 ?
JAS-2 15 Sep 18:45:53 18:51:20 89° 79° (E) 18:56:33 435.800 - 435.900 CW/SSB, 435.910 FM
Hamsat 15 Sep 18:48:40 18:53:02 86° 258° (WSW) 18:57:25 145.90 MHz
Saudisat 1A 15 Sep 18:57:25 19:01:42 56° 118° (ESE) 19:06:02 436.775 MHz
STRAND 1 15 Sep 19:17:26 19:20:21 15° 92° (E) 19:23:15 ?
KITSAT 1 15 Sep 19:33:00 19:37:57 18° 101° (E) 19:42:53 435.175 FM
MaSat-1 15 Sep 20:08:45 20:12:39 68° 248° (WSW) 20:15:56 437.345 MHz
SO-67 15 Sep 20:14:45 20:18:08 56° 260° (W) 20:21:33 435.3500 MHz FM
HO-68 15 Sep 20:28:08 20:33:41 25° 60° (ENE) 20:39:14 435.675 MHz FM
Saudisat 1A 15 Sep 20:38:39 20:41:38 18° 316° (NW) 20:44:37 436.775 MHz
STRAND 1 15 Sep 20:54:51 20:59:54 60° 287° (WNW) 21:04:56 ?
